Weather History for KECS - June, 2013

Change the Weather History Date:

Wednesday, June 26, 2013

  Actual Average (KCUT) Record (KCUT)
Temperature  
Mean Temperature 71 °F 62 °F  
Max Temperature 87 °F 75 °F - ()
Min Temperature 55 °F 50 °F - ()
Degree Days  
Heating Degree Days 0 4  
Month to date heating degree days 205  
Since 1 June heating degree days 205  
Since 1 July heating degree days 8374  
Cooling Degree Days 6 2  
Month to date cooling degree days 16  
Year to date cooling degree days 17  
Since 1 June cooling degree days 16  
Growing Degree Days 21 (Base 50)    
Moisture  
Dew Point 47 °F    
Average Humidity 44    
Maximum Humidity 82    
Minimum Humidity 21    
Precipitation  
Precipitation 0.00 in 0.10 in - ()
Month to date precipitation 2.84  
Year to date precipitation 9.95  
Sea Level Pressure  
Sea Level Pressure 30.00 in    
Wind  
Wind Speed 4 mph (WNW)    
Max Wind Speed 10 mph    
Max Gust Speed 20 mph    
Visibility 10 miles    
Events      
T = Trace of Precipitation, MM = Missing Value Source: NWS Daily Summary

Daily Weather History Graph

Daily Weather History Graph

Search for Another Location

Airport or City:

Trip Planner

Search our weather history database for the weather conditions in past years. The results will help you decide how hot, cold, wet, or windy it might be!

Date:

Astronomy

Jun. 26, 2013 Rise Set
Actual Time 5:16 AM MDT 8:43 PM MDT
Civil Twilight 4:40 AM MDT 9:19 PM MDT
Nautical Twilight 3:52 AM MDT 10:07 PM MDT
Astronomical Twilight 2:52 AM MDT 11:07 PM MDT
Moon 10:58 PM MDT (6/26) 9:19 AM MDT (6/26)
Length of Visible Light 16h 39m
Length of Day
15h 27m
Waning Gibbous, 85% of the Moon is Illuminated
Jun 26
Waning Gibbous
Jun 29
Last Quarter
Jul 8
New
Jul 15
First Quarter
Jul 22
Full

Hourly Weather History & Observations

Time (MDT) Temp. Dew Point Humidity Pressure Visibility Wind Dir Wind Speed Gust Speed Precip Events Conditions
12:15 AM 64.4 °F 50.0 °F 59% 29.95 in 10.0 mi SE 6.9 mph - N/A   Clear
12:35 AM 62.6 °F 50.0 °F 63% 29.95 in 10.0 mi ESE 5.8 mph - N/A   Clear
12:55 AM 60.8 °F 50.0 °F 68% 29.95 in 10.0 mi SE 3.5 mph - N/A   Clear
1:15 AM 62.6 °F 50.0 °F 63% 29.95 in 10.0 mi Calm Calm - N/A   Clear
1:35 AM 60.8 °F 50.0 °F 68% 29.95 in 10.0 mi North - - N/A   Clear
1:55 AM 59.0 °F 50.0 °F 72% 29.95 in 10.0 mi North - - N/A   Clear
2:15 AM 57.2 °F 50.0 °F 77% 29.95 in 10.0 mi Calm Calm - N/A   Clear
2:35 AM 57.2 °F 50.0 °F 77% 29.95 in 10.0 mi WNW 3.5 mph - N/A   Clear
2:55 AM 55.4 °F 50.0 °F 82% 29.95 in 10.0 mi Calm Calm - N/A   Clear
3:15 AM 55.4 °F 50.0 °F 82% 29.95 in 10.0 mi SSE 3.5 mph - N/A   Clear
3:35 AM 55.4 °F 48.2 °F 77% 29.96 in 10.0 mi SE 5.8 mph - N/A   Clear
3:55 AM 55.4 °F 48.2 °F 77% 29.95 in 10.0 mi North - - N/A   Clear
4:15 AM 55.4 °F 48.2 °F 77% 29.97 in 10.0 mi Calm Calm - N/A   Clear
4:35 AM 62.6 °F 48.2 °F 59% 29.97 in 10.0 mi North - - N/A   Clear
4:55 AM 60.8 °F 46.4 °F 59% 29.97 in 10.0 mi North - - N/A   Clear
5:15 AM 59.0 °F 46.4 °F 63% 29.97 in 10.0 mi SW 4.6 mph - N/A   Clear
5:35 AM 64.4 °F 46.4 °F 52% 29.97 in 10.0 mi North - - N/A   Clear
5:55 AM 62.6 °F 46.4 °F 55% 29.98 in 10.0 mi Calm Calm - N/A   Clear
6:15 AM 62.6 °F 46.4 °F 55% 29.99 in 10.0 mi SSE 3.5 mph - N/A   Clear
6:35 AM 62.6 °F 48.2 °F 59% 30.00 in 10.0 mi South 3.5 mph - N/A   Clear
6:55 AM 60.8 °F 50.0 °F 68% 30.00 in 10.0 mi North - - N/A   Clear
7:15 AM 62.6 °F 51.8 °F 68% 30.00 in 10.0 mi South 3.5 mph - N/A   Clear
7:35 AM 64.4 °F 51.8 °F 64% 30.01 in 10.0 mi Calm Calm - N/A   Clear
7:55 AM 64.4 °F 50.0 °F 59% 30.02 in 7.0 mi Calm Calm - N/A   Clear
8:15 AM 66.2 °F 50.0 °F 56% 30.02 in 10.0 mi Calm Calm - N/A   Clear
8:55 AM 69.8 °F 50.0 °F 49% 30.02 in 10.0 mi Calm Calm - N/A   Clear
9:15 AM 71.6 °F 50.0 °F 46% 30.02 in 10.0 mi Calm Calm - N/A   Clear
9:35 AM 71.6 °F 50.0 °F 46% 30.03 in 10.0 mi SW 3.5 mph - N/A   Clear
9:55 AM 71.6 °F 50.0 °F 46% 30.03 in 10.0 mi North - - N/A   Clear
10:15 AM 71.6 °F 48.2 °F 43% 30.04 in 10.0 mi Calm Calm - N/A   Clear
10:35 AM 73.4 °F 48.2 °F 41% 30.04 in 10.0 mi Calm Calm - N/A   Clear
10:55 AM 73.4 °F 48.2 °F 41% 30.04 in 10.0 mi SW 5.8 mph - N/A   Clear
11:15 AM 75.2 °F 46.4 °F 36% 30.04 in 10.0 mi Calm Calm - N/A   Clear
11:35 AM 77.0 °F 46.4 °F 34% 30.04 in 10.0 mi North - - N/A   Clear
11:55 AM 78.8 °F 46.4 °F 32% 30.04 in 10.0 mi West 4.6 mph - N/A   Clear
12:15 PM 78.8 °F 44.6 °F 30% 30.04 in 10.0 mi WNW 9.2 mph - N/A   Clear
12:35 PM 80.6 °F 44.6 °F 28% 30.04 in 10.0 mi WNW 6.9 mph - N/A   Clear
12:55 PM 80.6 °F 42.8 °F 26% 30.03 in 5.0 mi SSW 4.6 mph - N/A   Haze
1:15 PM 80.6 °F 42.8 °F 26% 30.03 in 10.0 mi West 5.8 mph - N/A   Clear
1:35 PM 82.4 °F 42.8 °F 25% 30.03 in 10.0 mi WNW 8.1 mph - N/A   Clear
1:55 PM 82.4 °F 42.8 °F 25% 30.03 in 10.0 mi West 3.5 mph - N/A   Clear
2:15 PM 84.2 °F 42.8 °F 23% 30.03 in 10.0 mi WNW 6.9 mph - N/A   Clear
2:35 PM 86.0 °F 42.8 °F 22% 30.02 in 10.0 mi NW 10.4 mph 17.3 mph N/A   Clear
2:55 PM 86.0 °F 44.6 °F 23% 30.02 in 10.0 mi WNW 4.6 mph - N/A   Clear
3:15 PM 84.2 °F 44.6 °F 25% 30.02 in 10.0 mi WNW 4.6 mph - N/A   Clear
3:35 PM 86.0 °F 44.6 °F 23% 30.01 in 10.0 mi North 5.8 mph - N/A   Clear
3:55 PM 86.0 °F 42.8 °F 22% 30.00 in 10.0 mi NW 4.6 mph - N/A   Clear
4:15 PM 87.8 °F 42.8 °F 21% 30.00 in 10.0 mi NNW 8.1 mph - N/A   Clear
4:35 PM 87.8 °F 42.8 °F 21% 30.00 in 10.0 mi North - - N/A   Clear
4:55 PM 87.8 °F 42.8 °F 21% 29.99 in 10.0 mi NNW 6.9 mph - N/A   Clear
5:15 PM 87.8 °F 42.8 °F 21% 29.99 in 10.0 mi North - - N/A   Clear
5:35 PM 87.8 °F 42.8 °F 21% 29.99 in 10.0 mi NNW 8.1 mph - N/A   Clear
5:55 PM 86.0 °F 42.8 °F 22% 29.98 in 10.0 mi Calm Calm - N/A   Clear
6:15 PM 86.0 °F 42.8 °F 22% 29.98 in 10.0 mi NW 3.5 mph - N/A   Clear
6:35 PM 86.0 °F 42.8 °F 22% 29.99 in 10.0 mi Calm Calm - N/A   Clear
6:55 PM 86.0 °F 44.6 °F 23% 29.99 in 10.0 mi NNW 5.8 mph - N/A   Clear
7:15 PM 86.0 °F 44.6 °F 23% 29.99 in 10.0 mi NW 5.8 mph - N/A   Clear
7:35 PM 84.2 °F 46.4 °F 27% 29.99 in 10.0 mi NNW 9.2 mph - N/A   Clear
7:55 PM 82.4 °F 46.4 °F 28% 29.99 in 10.0 mi North 6.9 mph - N/A   Clear
8:15 PM 78.8 °F 46.4 °F 32% 30.00 in 10.0 mi North - - N/A   Clear
8:35 PM 77.0 °F 46.4 °F 34% 30.00 in 10.0 mi North 8.1 mph - N/A   Clear
8:55 PM 77.0 °F 46.4 °F 34% 30.01 in 10.0 mi North 8.1 mph - N/A   Clear
9:15 PM 75.2 °F 46.4 °F 36% 30.04 in 10.0 mi ESE 8.1 mph 19.6 mph N/A   Clear
9:35 PM 73.4 °F 50.0 °F 44% 30.05 in 10.0 mi ESE 3.5 mph - N/A   Clear
9:55 PM 73.4 °F 50.0 °F 44% 30.06 in 10.0 mi Calm Calm - N/A   Clear
10:15 PM 73.4 °F 50.0 °F 44% 30.06 in 10.0 mi Calm Calm - N/A   Clear
10:35 PM 71.6 °F 51.8 °F 50% 30.06 in 10.0 mi North 3.5 mph - N/A   Clear
10:55 PM 71.6 °F 51.8 °F 50% 30.07 in 10.0 mi Calm Calm - N/A   Clear
11:15 PM 71.6 °F 51.8 °F 50% 30.07 in 10.0 mi Calm Calm - N/A   Clear
11:35 PM 73.4 °F 50.0 °F 44% 30.08 in 10.0 mi NW 4.6 mph - N/A   Clear